Atlanta Dekalb, GA

9:32 AM EDT on July 27, 2017 (GMT -0400)
Dekalb-Peachtree

Weather History for KPDK - July, 2013

Change the Weather History Date:

Sunday, July 21, 2013

  Actual Average Record
Temperature  
Mean Temperature 80 °F 80 °F  
Max Temperature 88 °F 90 °F 96 °F (2002)
Min Temperature 71 °F 71 °F 66 °F (2004)
Cooling Degree Days 15 15  
Month to date cooling degree days 255 310  
Year to date cooling degree days 778 874  
Since 1 June cooling degree days 613 663  
Growing Degree Days 30 (Base 50)    
Moisture  
Dew Point 71 °F    
Average Humidity 78    
Maximum Humidity 100    
Minimum Humidity 55    
Precipitation  
Precipitation 0.27 in 0.14 in 0.35 in (2014)
Month to date precipitation 8.79 3.64  
Year to date precipitation 27.98 30.89  
Sea Level Pressure  
Sea Level Pressure 30.00 in    
Wind  
Wind Speed 3 mph (WSW)    
Max Wind Speed 15 mph    
Max Gust Speed 21 mph    
Visibility 6 miles    
Events Rain , Thunderstorm    
T = Trace of Precipitation, MM = Missing Value Source: NWS Daily Summary

Daily Weather History Graph

Daily Weather History Graph

Search for Another Location

Airport or City:

Trip Planner

Search our weather history database for the weather conditions in past years. The results will help you decide how hot, cold, wet, or windy it might be!

Date:

Astronomy

Jul. 21, 2013 Rise Set
Actual Time 6:41 AM EDT 8:45 PM EDT
Civil Twilight 6:13 AM EDT 9:13 PM EDT
Nautical Twilight 5:39 AM EDT 9:47 PM EDT
Astronomical Twilight 5:02 AM EDT 10:24 PM EDT
Moon 7:45 PM EDT (7/21) 5:25 AM EDT (7/21)
Length of Visible Light 15h 00m
Length of Day
14h 04m
Waxing Gibbous, 98% of the Moon is Illuminated
Jul 21
Waxing Gibbous
Jul 22
Full
Jul 29
Last Quarter
Aug 6
New
Aug 14
First Quarter

Hourly Weather History & Observations

Time (EDT) Temp. Heat Index Dew Point Humidity Pressure Visibility Wind Dir Wind Speed Gust Speed Precip Events Conditions
12:53 AM 72.0 °F - 71.1 °F 97% 30.00 in 5.0 mi Calm Calm - N/A   Partly Cloudy
1:53 AM 72.0 °F - 71.1 °F 97% 30.01 in 6.0 mi Calm Calm - N/A   Clear
2:38 AM 71.6 °F - 71.6 °F 100% 30.03 in 2.5 mi Calm Calm - N/A   Clear
2:53 AM 72.0 °F - 71.1 °F 97% 29.98 in 4.0 mi Calm Calm - N/A   Clear
3:53 AM 72.0 °F - 71.1 °F 97% 29.97 in 5.0 mi Calm Calm - N/A   Clear
4:53 AM 71.1 °F - 70.0 °F 96% 29.97 in 5.0 mi Calm Calm - N/A   Clear
5:14 AM 71.6 °F - 71.6 °F 100% 30.02 in 6.0 mi SW 3.5 mph - N/A   Mostly Cloudy
5:22 AM 71.6 °F - 71.6 °F 100% 30.02 in 7.0 mi SW 5.8 mph - N/A   Mostly Cloudy
5:53 AM 72.0 °F - 71.1 °F 97% 29.99 in 6.0 mi SW 4.6 mph - N/A   Overcast
6:28 AM 71.6 °F - 71.6 °F 100% 30.03 in 7.0 mi WSW 4.6 mph - N/A   Overcast
6:53 AM 72.0 °F - 71.1 °F 97% 30.00 in 4.0 mi West 3.5 mph - N/A   Overcast
7:53 AM 73.0 °F - 71.1 °F 93% 30.01 in 4.0 mi West 3.5 mph - N/A   Overcast
8:01 AM 73.4 °F - 71.6 °F 94% 30.05 in 2.0 mi West 4.6 mph - N/A   Overcast
8:53 AM 73.0 °F - 72.0 °F 96% 30.03 in 2.0 mi WSW 4.6 mph - N/A   Overcast
9:13 AM 73.4 °F - 71.6 °F 94% 30.07 in 3.0 mi WSW 3.5 mph - N/A   Overcast
9:53 AM 73.9 °F - 72.0 °F 93% 30.03 in 5.0 mi Calm Calm - N/A   Overcast
10:09 AM 75.2 °F - 71.6 °F 89% 30.07 in 6.0 mi Variable 3.5 mph - N/A   Overcast
10:53 AM 75.9 °F - 72.0 °F 87% 30.03 in 6.0 mi West 3.5 mph - N/A   Overcast
11:03 AM 77.0 °F - 71.6 °F 83% 30.07 in 7.0 mi Calm Calm - N/A   Overcast
11:53 AM 80.1 °F 83.8 °F 72.0 °F 76% 30.03 in 9.0 mi WSW 3.5 mph - N/A   Mostly Cloudy
12:07 PM 80.6 °F 84.6 °F 71.6 °F 74% 30.07 in 9.0 mi WSW 4.6 mph - N/A   Mostly Cloudy
12:53 PM 82.0 °F 86.3 °F 71.1 °F 69% 30.01 in 9.0 mi Calm Calm - N/A   Mostly Cloudy
1:53 PM 84.0 °F 89.0 °F 71.1 °F 65% 29.98 in 10.0 mi Calm Calm - N/A   Scattered Clouds
2:53 PM 84.0 °F 89.6 °F 72.0 °F 67% 29.95 in 10.0 mi West 3.5 mph - N/A   Scattered Clouds
3:53 PM 88.0 °F 92.9 °F 70.0 °F 55% 29.92 in 10.0 mi Variable 3.5 mph - N/A   Clear
4:53 PM 88.0 °F 92.9 °F 70.0 °F 55% 29.90 in 10.0 mi SW 4.6 mph - N/A   Clear
5:29 PM 84.2 °F 87.3 °F 68.0 °F 58% 29.96 in 10.0 mi NW 4.6 mph - N/A Thunderstorm Clear
5:53 PM 84.0 °F 88.4 °F 70.0 °F 63% 29.91 in 10.0 mi WNW 12.7 mph - N/A Thunderstorm Scattered Clouds
6:02 PM 82.4 °F 87.2 °F 71.6 °F 70% 29.95 in 10.0 mi WNW 10.4 mph - N/A Thunderstorm Scattered Clouds
6:23 PM 78.8 °F - 71.6 °F 78% 29.96 in 6.0 mi West 9.2 mph - 0.00 in Rain Light Rain
6:48 PM 75.2 °F - 71.6 °F 89% 30.00 in 10.0 mi SSW 12.7 mph - 0.01 in Thunderstorm Overcast
6:53 PM 75.0 °F - 72.0 °F 90% 29.97 in 8.0 mi SSW 13.8 mph 20.7 mph 0.01 in Rain , Thunderstorm Light Rain
6:58 PM 73.4 °F - 71.6 °F 94% 30.00 in 5.0 mi SSW 10.4 mph 20.7 mph 0.01 in Rain Light Rain
7:07 PM 73.4 °F - 71.6 °F 94% 30.01 in 2.5 mi SSW 11.5 mph - 0.03 in Rain , Thunderstorm Rain
7:15 PM 73.4 °F - 71.6 °F 94% 30.00 in 5.0 mi SW 10.4 mph - 0.04 in Rain , Thunderstorm Light Rain
7:28 PM 73.4 °F - 71.6 °F 94% 30.01 in 5.0 mi SW 12.7 mph - 0.05 in Rain Light Rain
7:43 PM 73.4 °F - 71.6 °F 94% 30.02 in 3.0 mi WSW 13.8 mph 20.7 mph 0.09 in Rain Rain
7:53 PM 72.0 °F - 71.1 °F 97% 29.98 in 3.0 mi WSW 11.5 mph - 0.11 in Rain Light Rain
8:53 PM 72.0 °F - 71.1 °F 97% 29.97 in 4.0 mi Calm Calm - 0.13 in Rain Light Rain
9:00 PM 71.6 °F - 71.6 °F 100% 30.01 in 4.0 mi Calm Calm - 0.01 in Rain Light Rain
9:53 PM 72.0 °F - 70.0 °F 93% 30.00 in 10.0 mi SSW 4.6 mph - 0.02 in   Mostly Cloudy
10:53 PM 72.0 °F - 70.0 °F 93% 30.02 in 10.0 mi Calm Calm - N/A   Scattered Clouds
11:53 PM 72.0 °F - 70.0 °F 93% 30.01 in 10.0 mi Calm Calm - N/A   Clear